YMEKYGEL

Guest
Details From YMEK - Meekatharra
To YGEL - Geraldton
Flight Number -
Tags Generated
Created
Modified
Stats Distance 243 nm / 450 km
Max Altitude 0 ft / 0 m
Waypoints 3
Social Downloads 2
Likes 0
Share VATSIM

Download

Looking for another format? Having issues loading an existing format? Contact us
Advertisement - Login to hide

Notes

Generated

Route

YMEK GELNM YGEL

ID Type Via Altitude Latitude Longitude Leg Dist Tot Dist Heading (true) Name
O YMEK APT - 0 ft / 0 m -26.60901˚ 118.54871˚ - 0 nm - Meekatharra
GELNM FIX - 0 ft / 0 m -28.78283˚ 114.71174˚ 242 nm 242 nm 237° / 238° -
O YGEL APT - 0 ft / 0 m -28.78796˚ 114.70038˚ 0 nm 242 nm 243° / 243° Geraldton

Altitude Profile

Advertisement - Login to hide

Weather


0- 5 10 15 20 25 30 35+ Temperature / ° C

Clouds and Precipitation
Forecast for 2018-05-26 06:00 UTC. Updated an hour ago

Ground ~20,000 ft ~40,000 ft Winds

YMEK

Details ICAO YMEK (MKR)
Name Meekatharra
Region Australia
Timezone Australia/Perth (UTC+8.0)
Stats Elevation 1,713 ft / 522 m (AMSL)
Location -26.610631° 118.549259°
Runways 2
Magnetic Variation 0.602° E

METAR

YMEK 260600Z AUTO 27010KT 9999 // SCT043 OVC055 19/08 Q1014

Decode

TAF

Not found

Departure Runways

ID Width Length Bearing (true) Bearing (mag) Surface Threshold Offset Overrun Length
09 98 ft / 30 m 7,144 ft / 2,178 m 84.80° 84.20° Asphalt 0 ft / 0 m 112 ft / 34 m
15 269 ft / 82 m 3,910 ft / 1,192 m 139.11° 138.51° Dirt 0 ft / 0 m 0 ft / 0 m
27 98 ft / 30 m 7,144 ft / 2,178 m 264.80° 264.20° Asphalt 0 ft / 0 m 102 ft / 31 m
33 269 ft / 82 m 3,910 ft / 1,192 m 319.11° 318.51° Dirt 0 ft / 0 m 0 ft / 0 m

YGEL

Details ICAO YGEL (GET)
Name Geraldton
Region Australia
Timezone Australia/Perth (UTC+8.0)
Stats Elevation 121 ft / 37 m (AMSL)
Location -28.791486° 114.704952°
Runways 3
Magnetic Variation 1.088° W

METAR

YGEL 260600Z AUTO 23017KT 9999 // SCT032 BKN041 OVC054 20/11 Q1014

Decode

TAF

TAF YGEL 260458Z 2606/2624 24022G32KT 9999 -SHRA SCT040 FM261000 24008KT 9999 -SHRA SCT030 INTER 2618/2624 5000 SHRA SCT015 BKN025

Decode

Destination Runways

ID Width Length Bearing (true) Bearing (mag) Surface Threshold Offset Overrun Length
03 148 ft / 45 m 6,518 ft / 1,987 m 18.30° 19.39° Asphalt 0 ft / 0 m 194 ft / 59 m
06 102 ft / 31 m 2,253 ft / 687 m 79.36° 80.45° Dirt 0 ft / 0 m 561 ft / 171 m
14 164 ft / 50 m 3,106 ft / 947 m 142.42° 143.51° Dirt 0 ft / 0 m 0 ft / 0 m
21 148 ft / 45 m 6,518 ft / 1,987 m 198.30° 199.39° Asphalt 0 ft / 0 m 220 ft / 67 m
24 102 ft / 31 m 2,253 ft / 687 m 259.36° 260.45° Dirt 0 ft / 0 m 135 ft / 41 m
32 164 ft / 50 m 3,106 ft / 947 m 322.41° 323.50° Dirt 0 ft / 0 m 0 ft / 0 m